Temp
88 88 91 91 93 72 82 84 76 82 92 87 77 76 81 80 74 67 80 75 80 90 91 93 94 94 95 97 98 99 97 97 94 93 95 96 96 96 95 94 94 92 93 92 92 92 93 93 92 91 89 89 89 89 88 87 87 88 88 87 87 88 88
89 93 93 92 93 93 87 77 83 92 96 92 78 68 71 68 66 68 79 72 74 76 71 90 91 91 94 95 97 100 98 96 93 94 93 94 95 96 95 94 93 93 93 92 93 95 94 93 93 91 89 90 90 90 90 88 88 87 88 88 88 88 87
88 92 91 87 93 95 87 85 96 82 71 69 77 75 63 63 62 66 73 77 77 78 76 86 86 88 91 93 95 97 98 97 94 95 94 94 96 96 94 95 93 93 93 93 92 95 97 95 92 92 91 92 91 91 91 92 89 90 90 91 90 89 89
86 87 86 73 80 90 92 95 88 92 84 76 72 73 74 73 65 65 67 75 71 80 83 88 87 90 92 94 95 96 98 99 96 96 96 94 93 94 95 95 95 94 95 96 97 97 97 95 93 94 95 95 95 93 91 91 92 90 90 90 89 88 89
86 74 81 77 81 78 80 83 79 84 84 89 84 83 77 70 66 67 67 66 73 83 91 91 90 92 93 93 93 95 97 100 102 98 97 95 94 94 94 95 95 95 95 98 98 98 98 98 96 97 98 96 97 97 94 94 91 92 92 91 91 89 89
75 79 87 86 87 86 84 81 77 82 78 73 69 67 84 79 72 62 66 65 76 89 95 92 93 94 95 96 95 96 98 101 101 100 98 97 95 94 95 97 98 98 96 97 99 97 97 98 98 97 98 98 99 98 98 97 97 95 96 93 90 89 89
77 83 89 91 91 91 89 86 82 86 84 82 74 62 70 78 79 82 76 71 72 92 95 93 93 95 98 98 99 98 100 100 103 102 101 98 95 95 97 97 99 99 97 96 96 94 93 94 94 96 97 99 98 98 99 98 97 97 99 97 94 90 89
84 87 90 91 91 90 86 88 89 86 80 83 79 77 77 74 77 72 73 68 75 91 94 95 96 95 98 98 100 98 99 101 102 99 98 96 93 93 96 98 100 98 98 95 93 92 91 91 92 94 95 96 98 99 100 100 99 99 99 99 96 91 89
70 76 81 83 89 87 83 82 86 87 87 87 86 85 82 72 76 77 70 63 74 87 93 93 94 96 97 98 100 100 98 99 102 99 95 95 92 92 94 94 95 95 95 92 90 90 89 89 92 92 93 94 97 97 99 100 100 101 99 98 98 94 92
54 55 58 64 70 75 82 84 85 86 86 83 80 73 74 66 72 74 72 73 79 89 90 91 93 93 93 98 100 103 102 99 98 96 93 91 90 89 90 92 93 92 91 90 89 89 88 90 91 90 91 94 96 97 97 101 101 100 100 100 99 96 95
66 69 72 81 82 80 74 79 81 83 86 87 84 80 73 69 72 71 70 76 79 83 88 87 91 92 93 95 96 97 98 99 96 92 90 91 89 88 90 89 91 90 89 88 88 88 90 91 91 91 92 93 95 93 95 99 100 100 97 98 95 97 96
75 80 78 83 82 78 80 78 79 83 84 84 80 76 72 77 74 67 72 77 77 81 86 89 89 92 92 94 95 98 98 98 97 96 89 88 90 89 89 89 88 87 87 87 87 87 89 90 90 91 93 94 93 93 94 96 99 99 99 96 95 94 93
78 80 82 83 82 82 81 82 82 80 81 81 78 77 81 78 73 70 76 78 77 81 87 91 92 93 92 96 96 98 100 101 99 93 91 91 91 89 89 87 87 87 87 86 86 87 88 90 90 90 92 93 92 93 94 94 98 98 96 94 93 93 92
77 79 80 82 81 81 81 81 82 82 82 81 81 80 83 82 75 80 80 78 79 85 89 92 93 96 97 98 98 98 99 101 97 94 91 93 92 91 90 88 88 87 87 87 86 87 87 89 89 91 90 90 92 92 93 95 94 97 95 93 91 91 91
73 78 81 82 82 80 78 81 82 83 83 83 83 83 83 82 80 84 83 77 78 88 92 92 95 96 98 97 97 98 97 98 99 94 94 93 93 93 91 89 89 88 88 88 87 86 87 88 88 89 90 90 92 95 95 96 93 96 96 91 90 90 89
69 77 78 79 81 81 80 79 80 81 81 78 81 79 84 80 76 78 79 75 77 86 92 94 94 94 93 93 94 95 95 98 96 93 93 93 92 92 91 90 89 88 88 87 87 87 89 89 89 89 89 90 92 93 96 96 97 97 95 93 91 88 89
65 75 79 78 78 76 72 75 80 82 82 83 85 86 86 85 85 78 74 76 85 87 90 89 90 93 93 93 94 94 95 93 95 94 93 94 93 92 90 89 88 90 91 90 88 90 92 91 90 91 91 92 90 92 93 94 95 96 94 92 89 88 88
64 72 74 76 70 60 63 81 87 85 82 82 80 81 84 87 87 84 87 86 88 89 90 89 89 89 90 93 93 96 94 93 91 93 93 94 95 94 94 92 92 91 91 91 91 92 91 92 95 95 93 93 92 93 95 94 94 92 91 91 90 89 88
63 70 71 63 56 60 78 87 89 89 88 87 84 84 87 88 89 89 87 88 88 90 91 91 91 92 95 96 95 94 94 91 91 90 91 90 91 92 92 92 94 91 89 90 90 90 93 95 94 94 93 94 93 93 93 92 91 90 91 90 89 89 88
68 64 64 53 57 74 82 84 88 90 90 88 85 82 86 87 89 88 86 88 90 90 91 93 94 93 93 91 89 88 92 92 92 93 93 93 93 92 93 92 91 89 91 90 92 90 93 94 95 95 94 95 95 96 96 93 91 91 90 89 89 88 87
56 61 63 61 71 72 76 75 78 82 78 81 79 72 79 87 90 89 87 88 90 91 93 92 89 88 90 87 88 92 92 89 91 94 95 97 96 95 94 94 92 90 91 91 93 90 92 94 93 94 96 98 97 96 95 93 90 92 90 88 88 87 87
66 60 58 58 62 58 68 74 79 82 81 80 81 78 76 87 90 90 88 85 87 89 90 88 86 85 83 82 87 90 93 91 89 91 93 96 96 97 96 93 93 90 91 92 90 92 91 92 95 96 98 97 95 92 92 92 90 90 89 87 87 87 87
63 60 56 57 56 62 67 71 76 79 80 80 80 75 71 83 86 88 88 87 87 88 88 85 84 82 79 82 88 89 90 91 94 92 92 95 96 96 95 95 93 92 90 91 92 92 92 94 94 95 96 96 93 90 90 93 91 89 87 87 87 86 87
61 57 58 56 63 63 68 73 75 79 81 79 75 62 66 83 86 87 85 86 87 86 86 86 83 81 80 83 89 89 90 90 91 89 89 90 90 91 93 94 93 90 89 89 90 92 92 90 92 92 94 92 89 87 89 93 90 88 87 87 87 88 88
60 56 58 63 67 71 71 74 76 79 81 77 66 58 76 76 81 83 83 85 86 84 83 85 81 84 86 85 86 89 89 89 87 89 89 89 90 90 92 89 85 87 88 89 90 91 87 88 91 92 91 88 86 87 88 88 87 88 88 87 86 86 86
61 62 57 58 65 68 71 77 78 80 74 63 63 73 72 76 77 78 81 83 85 84 83 84 87 83 85 87 89 87 88 87 86 87 89 89 90 90 86 84 86 89 90 87 87 88 87 88 89 90 87 85 84 84 85 85 86 88 86 85 85 85 84
67 65 59 56 49 64 74 74 76 76 67 69 70 74 78 80 80 80 81 84 84 86 83 84 82 84 86 86 86 86 86 86 86 86 86 85 85 85 85 86 89 89 88 88 89 89 92 92 90 89 88 83 83 84 83 83 85 85 85 85 84 83 82
61 60 56 56 66 69 75 73 67 72 74 76 77 78 77 81 81 80 80 81 82 84 82 82 83 83 82 82 83 83 83 84 85 85 86 87 88 89 91 91 89 89 86 87 88 88 89 88 88 87 84 82 81 80 78 80 82 83 83 83 83 81 81
68 66 68 69 71 72 76 76 74 74 77 79 80 80 80 79 80 81 80 79 82 83 83 82 82 82 83 83 85 84 84 85 85 84 85 86 87 88 88 89 88 88 86 83 84 83 83 83 83 83 83 81 78 76 76 79 80 82 82 81 81 80 80
69 70 70 71 70 70 74 78 79 79 79 81 82 80 77 77 79 81 80 82 82 84 84 82 81 82 83 83 84 84 84 83 82 82 84 85 86 87 88 86 87 87 87 85 83 82 81 83 82 83 83 82 79 79 80 80 82 82 80 79 78 79 79
65 56 68 69 68 69 71 75 78 80 81 80 79 76 76 78 81 82 81 81 81 82 82 81 80 82 83 82 81 80 80 81 81 82 80 81 82 83 83 85 86 87 87 86 85 85 84 87 89 90 88 87 83 81 80 82 82 81 79 79 78 78 77
67 64 67 68 70 70 71 73 75 75 77 78 79 78 78 78 79 80 81 83 82 84 82 81 81 82 84 82 80 80 79 79 80 79 80 80 80 81 82 83 86 88 88 87 85 84 82 84 87 87 87 86 84 84 85 85 83 80 79 79 80 79 79
70 69 68 68 70 69 69 71 71 73 75 76 77 80 81 82 80 79 80 81 81 81 80 81 79 78 79 82 82 82 80 79 79 79 79 80 80 81 81 81 81 81 82 83 83 83 82 83 84 84 85 87 87 85 85 85 82 81 80 79 80 81 80
63 62 64 70 63 59 63 66 66 68 72 75 76 76 78 78 78 79 79 78 80 80 80 79 78 76 76 78 79 79 78 77 77 78 80 81 81 81 81 82 82 80 80 81 80 80 80 81 82 82 82 83 85 88 87 85 83 80 78 80 81 82 82
63 66 71 69 66 61 59 62 66 68 70 71 71 71 73 75 76 78 77 76 75 75 76 79 78 75 75 76 78 79 79 76 77 78 78 79 80 81 82 82 81 80 79 80 80 79 79 80 81 81 81 83 84 86 84 83 83 80 80 80 82 82 81
66 70 71 69 68 60 58 62 63 63 65 68 69 70 72 73 73 74 74 74 73 73 74 75 77 77 77 77 78 75 76 78 77 77 78 79 79 81 82 81 79 79 79 78 79 78 79 80 80 80 82 83 82 85 82 82 82 80 80 80 80 82 83
68 70 71 70 67 64 62 60 59 59 61 61 60 62 66 69 71 72 71 71 74 75 73 73 73 75 76 77 76 75 75 76 75 76 76 76 78 79 80 80 77 77 77 78 78 79 79 78 78 79 81 80 82 84 81 82 81 80 79 81 83 83 82
MSLP
1002.31 1002.75 1002.15 1002.31 1001.83 1008.79 1004.95 1005.31 1006.91 1005.15 1003.07 1004.67 1007.19 1007.71 1006.51 1006.99 1009.27 1010.23 1006.23 1008.67 1006.99 1003.83 1003.27 1002.87 1002.35 1002.23 1002.07 1001.51 1001.35 1001.35 1001.47 1001.67 1002.07 1002.51 1002.23 1002.15 1002.15 1002.35 1002.59 1002.87 1003.19 1003.63 1003.99 1004.35 1004.63 1005.07 1005.43 1005.83 1006.27 1006.55 1006.83 1007.07 1007.47 1007.87 1008.31 1008.75 1009.03 1009.19 1009.47 1009.75 1009.99 1010.15 1010.39
1001.67 1000.95 1001.23 1001.75 1001.35 1001.43 1003.63 1006.67 1004.43 1002.55 1001.19 1002.63 1006.27 1009.99 1009.15 1011.07 1011.43 1009.43 1006.71 1009.11 1008.75 1008.07 1009.27 1002.75 1002.83 1002.99 1002.31 1001.87 1001.27 1000.55 1000.63 1001.35 1002.19 1002.03 1001.95 1001.75 1001.67 1001.67 1001.83 1002.19 1002.39 1002.63 1002.87 1003.35 1003.67 1003.99 1004.35 1004.83 1005.31 1005.83 1006.19 1006.31 1006.71 1007.15 1007.59 1008.23 1008.63 1009.03 1009.03 1009.19 1009.51 1009.67 1009.99
1002.11 1001.11 1001.63 1002.91 1001.23 1000.47 1002.67 1003.39 1000.75 1005.03 1008.83 1010.11 1006.11 1007.43 1011.23 1012.03 1011.95 1010.67 1007.83 1006.79 1007.15 1006.59 1006.59 1003.83 1003.83 1003.59 1002.71 1001.83 1000.99 1000.63 1000.75 1001.23 1001.51 1001.39 1001.35 1001.23 1001.15 1001.35 1001.75 1001.99 1002.31 1002.47 1002.63 1002.87 1003.11 1003.27 1003.43 1003.91 1004.39 1004.95 1005.39 1005.79 1006.19 1006.63 1006.91 1007.23 1007.87 1008.03 1008.27 1008.47 1008.79 1009.07 1009.31
1001.79 1002.03 1002.47 1006.07 1004.27 1001.55 1001.07 1000.47 1002.35 1001.47 1004.15 1006.03 1007.95 1006.95 1006.99 1007.75 1009.99 1010.83 1009.23 1007.43 1008.11 1004.75 1004.07 1002.71 1002.99 1002.19 1001.55 1001.19 1000.95 1000.87 1000.43 1000.27 1000.67 1000.55 1000.67 1001.03 1001.23 1001.19 1001.23 1001.47 1001.63 1001.87 1001.91 1001.99 1002.19 1002.59 1002.99 1003.43 1004.03 1004.35 1004.83 1005.23 1005.67 1005.99 1006.51 1006.83 1006.99 1007.39 1007.79 1008.11 1008.39 1008.83 1008.91
1001.79 1004.99 1002.83 1003.83 1002.91 1004.47 1004.39 1003.79 1004.87 1003.35 1003.27 1001.87 1003.91 1003.99 1005.75 1008.27 1009.15 1008.67 1009.07 1009.51 1006.23 1003.07 1001.19 1001.51 1001.63 1001.15 1001.19 1001.23 1001.23 1000.59 1000.03 999.35 998.95 999.63 999.91 1000.15 1000.47 1000.67 1000.71 1000.75 1000.95 1001.11 1001.19 1001.23 1001.47 1001.79 1002.07 1002.51 1003.11 1003.59 1003.99 1004.55 1004.83 1005.19 1005.79 1006.15 1006.75 1007.03 1007.31 1007.51 1007.83 1008.15 1008.39
1003.91 1002.75 1000.95 1001.11 1001.19 1001.27 1002.07 1003.71 1004.95 1003.27 1004.95 1006.75 1008.03 1007.95 1003.75 1005.07 1007.23 1008.47 1009.07 1008.23 1005.07 1000.67 999.19 999.83 1000.67 1000.39 1000.23 1000.07 1000.31 1000.15 999.47 998.71 998.31 998.71 999.07 999.31 1000.03 1000.11 1000.11 1000.11 1000.11 1000.35 1000.63 1000.83 1001.03 1001.39 1001.71 1002.19 1002.67 1003.23 1003.31 1003.71 1004.23 1004.63 1004.79 1005.31 1005.71 1006.19 1006.51 1006.99 1007.27 1007.59 1007.91
1003.15 1001.43 999.83 999.47 999.67 999.71 1000.15 1001.31 1002.95 1002.07 1002.63 1003.43 1005.75 1008.83 1006.51 1004.83 1003.63 1003.87 1004.71 1006.79 1005.43 999.55 998.43 999.31 999.87 999.75 999.23 999.07 999.11 999.23 998.59 998.27 997.83 998.11 998.43 998.71 999.11 999.47 999.47 999.47 999.47 999.67 1000.11 1000.47 1000.75 1001.27 1001.67 1001.87 1002.19 1002.59 1002.95 1003.19 1003.55 1003.95 1004.23 1004.59 1005.07 1005.39 1005.47 1005.91 1006.39 1006.95 1007.47
1000.71 999.95 999.35 998.87 999.19 1000.03 1001.15 1000.35 1000.15 1001.43 1002.87 1002.23 1003.63 1004.23 1004.55 1005.35 1004.39 1006.55 1006.11 1006.71 1004.35 999.55 997.99 998.31 998.83 998.95 998.71 998.31 998.51 998.83 998.67 997.91 997.51 998.19 998.39 998.71 999.27 999.31 999.11 998.91 998.95 999.19 999.59 1000.19 1000.67 1001.31 1001.79 1001.99 1002.23 1002.43 1002.59 1002.79 1002.99 1003.27 1003.59 1003.91 1004.43 1004.71 1004.91 1005.15 1005.71 1006.47 1007.07
1004.63 1003.03 1001.51 1000.95 999.63 1000.47 1001.27 1001.31 1000.19 1000.11 1000.47 1000.71 1001.15 1001.83 1002.23 1005.31 1003.43 1004.15 1006.51 1007.31 1004.87 1000.63 998.51 998.91 998.91 998.79 998.83 998.55 998.11 998.03 998.67 998.19 997.67 998.11 998.55 998.55 998.99 999.31 999.31 999.15 999.07 999.27 999.67 1000.31 1000.75 1001.03 1001.55 1001.83 1001.95 1002.19 1002.47 1002.71 1002.79 1003.03 1003.11 1003.39 1003.67 1003.91 1004.31 1004.55 1005.11 1005.83 1006.47
1008.55 1008.47 1007.39 1005.43 1004.31 1002.79 1001.23 1000.51 1000.35 999.75 1000.51 1001.11 1002.51 1004.51 1004.03 1005.59 1003.67 1003.75 1004.11 1003.75 1002.51 999.63 998.79 999.27 999.19 999.35 999.27 998.19 997.79 997.19 997.27 997.95 998.07 998.39 998.83 999.11 999.31 999.59 999.51 999.47 999.39 999.67 999.87 1000.23 1000.71 1001.03 1001.35 1001.55 1001.75 1002.03 1002.23 1002.39 1002.51 1002.71 1002.83 1002.71 1003.11 1003.43 1003.79 1004.11 1004.55 1005.19 1005.79
1003.75 1002.99 1002.07 1000.11 1000.19 1001.43 1003.23 1001.75 1001.19 1000.59 999.83 1000.11 1000.75 1001.79 1003.67 1004.27 1003.31 1004.51 1002.63 1002.79 1002.39 1001.19 1000.11 1000.23 999.63 999.07 999.47 999.07 998.63 998.35 998.07 997.67 997.99 998.63 998.91 999.03 999.31 999.47 999.47 999.63 999.59 999.79 1000.11 1000.35 1000.51 1000.79 1000.99 1001.19 1001.39 1001.67 1001.95 1002.15 1002.27 1002.59 1002.75 1002.59 1002.63 1003.07 1003.47 1003.83 1004.31 1004.75 1005.23
1000.95 999.95 1000.47 999.55 999.79 1001.11 1000.95 1001.75 1001.51 1000.55 1000.27 1000.35 1001.19 1001.83 1002.75 1001.11 1002.99 1004.83 1001.99 1001.95 1002.91 1001.67 1000.11 999.23 999.51 998.83 999.03 998.55 998.11 997.55 997.43 997.43 997.71 997.71 998.67 998.79 999.11 999.19 999.19 999.43 999.67 999.91 999.99 1000.23 1000.51 1000.63 1000.83 1001.03 1001.15 1001.39 1001.51 1001.67 1001.99 1002.27 1002.63 1002.59 1002.59 1002.87 1003.19 1003.67 1004.19 1004.63 1004.91
1000.79 1000.11 999.63 999.19 999.47 999.91 1000.07 1000.03 1000.23 1000.71 1000.67 1000.55 1001.31 1000.83 1000.31 1000.91 1002.55 1003.27 1001.55 1001.27 1002.19 1001.27 999.99 998.71 998.11 998.11 998.63 997.83 997.75 997.23 996.79 996.39 996.67 997.71 998.35 998.67 998.83 999.07 999.31 999.47 999.47 999.71 999.95 1000.03 1000.23 1000.43 1000.59 1000.75 1001.11 1001.27 1001.39 1001.51 1001.71 1001.99 1002.15 1002.43 1002.47 1002.71 1002.99 1003.59 1004.07 1004.47 1004.87
1000.51 999.87 999.63 999.11 999.43 999.35 999.83 999.87 999.71 999.63 999.79 1000.07 1000.27 1000.47 999.95 1000.23 1000.91 1000.19 1000.51 1000.99 1000.95 999.87 998.91 998.39 997.63 996.79 997.07 996.79 996.51 996.59 996.67 996.75 996.91 997.47 997.95 998.07 998.23 998.35 998.63 998.95 998.99 999.07 999.23 999.63 999.91 1000.11 1000.39 1000.51 1000.79 1000.99 1001.19 1001.35 1001.51 1001.87 1002.11 1002.23 1002.51 1002.43 1002.79 1003.47 1003.99 1004.31 1004.75
1001.19 999.55 998.83 998.59 998.71 999.11 999.75 999.03 998.95 998.83 998.75 999.03 998.99 999.39 999.43 999.59 999.83 999.51 999.99 1000.87 1000.67 998.23 997.07 997.31 996.63 996.11 996.15 996.35 996.99 996.99 996.51 996.67 996.79 997.35 997.51 997.59 997.59 997.51 997.83 998.31 998.67 998.75 998.95 999.19 999.55 999.83 1000.03 1000.19 1000.39 1000.59 1000.83 1000.99 1001.19 1001.31 1001.55 1001.79 1002.27 1002.23 1002.55 1003.35 1003.83 1004.15 1004.63
1001.67 999.55 999.35 998.87 998.71 998.47 998.55 998.87 998.71 998.91 999.07 999.71 998.91 999.23 998.39 999.51 1000.43 1000.23 1000.47 1000.95 1000.35 998.31 996.91 996.75 996.63 996.55 996.87 997.11 997.07 997.07 996.95 996.51 996.71 997.19 997.15 997.11 997.23 997.15 997.35 997.67 998.07 998.47 998.63 998.87 999.11 999.27 999.39 999.67 1000.03 1000.27 1000.51 1000.63 1000.83 1000.99 1001.07 1001.35 1001.63 1001.83 1002.31 1002.91 1003.59 1004.07 1004.23
1002.51 999.47 998.59 998.99 998.99 999.75 1000.31 999.07 998.11 997.91 997.95 997.79 997.35 996.95 996.83 997.27 997.87 999.79 1000.95 999.79 997.75 997.59 996.79 997.47 997.19 996.95 996.67 996.87 996.79 996.71 996.43 996.35 996.31 996.55 996.63 996.47 996.51 996.63 996.87 997.43 997.79 997.75 997.83 997.91 998.19 998.47 998.79 999.19 999.51 999.67 999.87 1000.27 1000.67 1000.63 1000.83 1000.99 1001.03 1001.59 1002.23 1002.71 1003.27 1003.75 1003.95
1002.67 1000.55 999.71 999.15 1000.95 1003.31 1001.75 996.75 995.63 996.27 997.43 997.39 998.35 997.91 996.91 996.15 996.31 997.07 996.43 996.71 996.35 996.43 996.55 996.83 997.15 997.11 996.55 996.03 995.75 995.27 995.95 996.35 996.67 996.35 996.23 996.27 996.15 996.19 996.39 996.71 997.03 997.07 997.27 997.43 997.79 997.99 998.15 998.39 998.63 998.91 999.23 999.79 1000.15 1000.19 1000.43 1000.79 1001.23 1001.59 1002.11 1002.51 1002.91 1003.47 1003.79
1002.99 1000.91 1000.63 1003.11 1004.83 1002.91 997.03 994.43 994.39 994.67 995.23 995.79 996.51 996.39 995.83 995.43 995.23 995.67 996.11 995.99 995.99 995.51 995.43 995.43 995.51 995.23 994.63 994.55 995.11 995.55 995.47 995.99 996.23 996.55 996.43 996.51 996.43 996.39 996.39 996.43 996.23 996.79 997.15 997.31 997.63 998.03 998.07 998.07 998.27 998.63 999.19 999.39 999.79 1000.19 1000.43 1000.95 1001.23 1001.67 1001.95 1002.35 1002.75 1003.15 1003.59
1001.43 1002.27 1002.83 1005.51 1003.31 998.15 996.23 995.35 994.39 993.71 994.51 994.91 995.95 996.75 995.83 995.23 994.91 995.07 996.03 995.67 995.43 995.23 995.15 994.79 994.55 994.91 995.15 995.35 995.63 995.83 995.47 995.47 995.83 995.95 995.99 995.91 995.95 996.27 996.07 996.31 996.31 996.67 996.91 997.11 997.35 997.83 997.67 997.99 998.27 998.43 998.99 999.03 999.47 999.79 999.91 1000.59 1001.07 1001.47 1001.87 1002.31 1002.67 1002.91 1003.39
1004.75 1003.51 1002.83 1002.67 999.47 999.03 997.91 998.03 997.07 996.39 997.35 996.75 997.23 999.07 996.79 994.55 994.31 994.55 995.11 995.11 994.99 994.83 994.51 994.91 995.55 995.59 995.67 996.51 996.19 995.19 995.19 995.51 995.27 995.23 995.11 994.87 995.07 995.11 995.35 995.59 996.11 996.35 996.39 996.75 996.79 997.23 997.59 997.91 998.31 998.51 998.47 998.55 998.95 999.35 999.91 1000.39 1000.95 1001.27 1001.67 1002.35 1002.59 1002.87 1003.19
1001.91 1003.07 1004.19 1003.91 1002.19 1002.83 999.43 997.75 996.83 996.07 996.43 996.47 996.23 996.87 997.11 993.91 993.75 993.95 994.83 995.55 995.23 994.95 995.07 995.47 995.87 996.27 997.55 998.11 996.55 995.19 994.75 994.95 995.35 995.07 994.87 994.51 994.39 994.43 994.75 995.15 995.47 995.83 995.95 996.23 996.75 997.07 997.59 997.83 997.83 997.75 997.87 998.27 998.87 999.51 999.99 1000.39 1000.95 1001.31 1001.71 1002.23 1002.39 1002.75 1003.07
1002.47 1002.99 1003.59 1003.47 1003.23 1001.07 1000.15 999.11 997.99 997.07 996.71 996.71 996.39 998.03 998.67 994.79 994.27 994.07 994.39 994.87 994.75 994.79 995.19 995.79 996.11 997.27 998.63 997.67 995.39 994.79 994.87 994.75 994.39 994.83 994.83 994.67 994.31 994.23 994.43 994.91 995.51 995.79 996.07 995.99 996.19 996.59 997.11 997.55 997.51 997.55 997.75 998.23 999.03 999.87 1000.15 1000.35 1000.83 1001.47 1001.91 1002.11 1002.35 1002.71 1002.91
1002.79 1003.31 1002.99 1003.75 1001.27 1000.39 999.91 998.87 998.31 997.43 996.75 996.75 998.03 1001.51 999.75 994.47 993.75 993.87 994.43 994.63 994.71 994.99 994.87 995.35 996.23 997.07 997.91 996.63 994.67 994.63 994.47 994.55 994.47 994.75 995.07 994.99 995.07 994.87 994.63 994.67 995.07 995.55 995.79 996.19 996.55 996.75 997.19 997.63 997.55 997.75 998.03 998.59 999.47 1000.15 1000.39 1000.39 1001.11 1001.71 1001.95 1002.07 1002.11 1002.27 1002.43
1002.35 1003.15 1003.27 1001.67 999.43 998.55 999.23 998.79 998.11 997.31 996.51 997.51 1000.39 1001.55 996.83 995.99 994.79 994.39 994.55 994.51 994.43 994.79 995.35 995.23 996.63 995.43 995.15 995.19 994.79 994.35 994.35 994.75 995.03 994.83 994.87 995.07 994.99 995.07 994.95 995.43 995.59 995.95 996.15 996.35 996.63 996.75 997.31 997.55 997.63 997.87 998.27 999.11 999.87 1000.19 1000.47 1000.87 1001.39 1001.47 1001.67 1001.91 1002.15 1002.35 1002.55
1001.47 1001.39 1002.67 1002.31 1000.07 999.51 999.35 997.91 997.71 997.11 998.43 1001.19 999.79 997.27 997.31 996.43 995.99 995.59 994.91 994.71 994.27 994.55 994.95 994.99 994.71 995.43 995.07 994.79 994.59 994.79 994.83 995.07 995.19 995.15 995.07 994.99 994.99 995.03 995.43 995.87 995.87 995.91 996.11 996.55 996.67 996.95 997.11 997.35 997.67 998.07 998.59 999.51 1000.07 1000.47 1000.83 1001.31 1001.31 1001.19 1001.67 1002.03 1002.27 1002.51 1002.79
999.55 1000.19 1001.35 1002.27 1003.75 999.99 998.59 998.39 997.75 997.87 999.91 998.71 998.63 997.31 996.23 995.79 995.55 995.23 994.91 994.35 994.35 993.99 994.95 994.87 995.35 995.23 995.23 995.31 995.31 995.27 995.23 995.27 995.43 995.35 995.39 995.51 995.67 995.91 996.11 996.27 996.19 996.27 996.67 996.87 996.91 996.91 996.87 997.19 997.75 998.23 998.83 999.79 1000.31 1000.55 1001.11 1001.31 1001.15 1001.47 1001.83 1002.19 1002.55 1002.83 1003.03
1000.03 1000.55 1001.51 1000.91 998.99 999.19 997.99 998.43 1000.23 998.71 998.39 997.55 996.87 996.63 996.87 995.75 995.67 995.95 995.75 995.31 994.91 994.67 994.91 995.19 995.43 995.63 995.95 996.11 995.95 995.87 995.87 995.83 995.63 995.39 995.23 995.15 995.19 995.35 995.39 995.75 996.15 996.35 996.87 997.03 997.35 997.47 997.67 997.99 998.27 998.63 999.23 1000.11 1000.55 1001.03 1001.43 1000.91 1000.87 1001.19 1001.79 1002.23 1002.63 1002.99 1003.23
997.91 997.91 997.51 998.07 997.87 998.03 997.71 997.91 998.43 998.39 997.67 997.03 996.51 996.15 996.23 996.31 996.15 995.59 996.11 996.31 995.63 995.27 995.23 995.35 995.51 995.91 995.87 996.07 995.95 996.15 996.23 996.03 995.87 995.75 995.67 995.51 995.63 995.79 996.11 996.35 996.39 996.59 997.27 997.83 998.11 998.47 998.59 998.83 998.95 999.23 999.39 1000.03 1000.99 1001.87 1002.07 1001.59 1001.43 1001.27 1001.63 1002.07 1002.59 1003.03 1003.27
997.95 997.79 997.87 997.67 997.91 998.23 998.11 997.95 997.79 997.71 997.55 996.91 996.55 996.63 996.99 996.79 996.27 995.87 996.19 996.11 996.07 995.91 995.55 995.67 995.79 995.87 995.95 996.07 996.31 996.47 996.59 996.63 996.47 996.19 996.07 996.03 995.99 996.15 996.43 996.75 996.83 997.07 997.35 997.79 998.27 998.91 999.11 998.95 999.31 999.63 999.83 999.87 1000.51 1000.83 1000.91 1001.19 1001.31 1001.35 1001.63 1002.27 1002.87 1003.19 1003.27
998.51 1000.59 998.79 998.43 998.67 998.83 999.11 998.67 998.15 997.71 997.47 997.51 997.31 997.55 997.23 996.91 996.23 995.99 995.95 996.19 996.51 996.51 996.31 996.15 996.07 996.07 995.99 996.55 996.99 997.23 997.35 997.23 997.07 996.99 997.07 997.07 996.99 997.11 997.39 997.27 996.99 997.19 997.55 998.15 998.47 998.63 999.15 999.07 999.07 999.31 999.67 999.79 1000.15 1000.47 1000.75 1000.79 1000.99 1001.31 1001.75 1002.31 1002.87 1003.23 1003.51
998.11 998.99 998.75 998.83 998.71 998.95 999.47 999.27 998.83 998.79 998.47 997.99 997.71 997.71 997.51 997.19 996.83 996.59 996.59 996.51 996.99 996.71 996.91 996.67 996.51 996.35 996.27 996.75 997.23 997.43 997.67 997.75 997.71 997.71 997.67 997.67 997.67 997.67 997.59 997.55 997.35 997.43 997.71 998.27 998.79 999.23 999.71 999.59 999.51 999.63 999.91 1000.23 1000.51 1000.63 1000.79 1000.87 1001.27 1001.63 1001.91 1002.27 1002.63 1003.03 1003.35
997.75 998.27 998.87 999.07 998.71 999.31 999.87 999.83 999.79 999.51 999.03 998.83 998.43 997.75 997.47 997.23 997.35 997.39 997.31 997.31 997.67 997.55 997.47 997.03 997.15 997.47 997.43 997.07 997.07 997.47 997.95 998.15 998.19 998.23 998.19 998.11 998.15 998.07 998.15 998.23 998.23 998.51 998.63 998.99 999.19 999.59 999.99 999.91 1000.03 1000.19 1000.19 1000.23 1000.47 1000.75 1000.83 1001.07 1001.51 1001.83 1002.11 1002.35 1002.51 1002.83 1003.15
999.51 999.71 999.83 998.71 999.83 1001.23 1000.79 1000.91 1001.03 1000.55 999.83 999.07 998.99 998.71 998.55 998.35 998.11 997.87 998.03 998.35 998.23 998.15 997.95 997.83 997.87 998.27 998.35 998.11 997.91 998.11 998.39 998.71 998.79 998.63 998.47 998.43 998.55 998.67 998.55 998.55 998.67 998.95 999.19 999.39 999.79 1000.11 1000.27 1000.23 1000.35 1000.51 1000.63 1000.59 1000.51 1000.47 1000.63 1001.07 1001.43 1002.03 1002.35 1002.47 1002.63 1002.83 1002.99
999.75 999.79 998.47 998.55 998.99 1000.43 1001.79 1001.79 1001.43 1000.99 1000.47 1000.11 1000.15 1000.15 999.95 999.63 999.23 998.83 998.83 999.31 999.43 999.35 999.11 998.55 998.63 998.99 999.07 999.07 998.63 998.55 998.87 999.23 999.15 999.03 998.95 998.99 998.95 999.03 998.91 999.07 999.31 999.51 999.71 999.79 999.91 1000.27 1000.43 1000.39 1000.47 1000.55 1000.75 1000.71 1000.63 1000.59 1000.79 1001.03 1001.47 1001.99 1002.19 1002.39 1002.43 1002.67 1002.99
999.95 999.07 998.71 999.27 999.39 1000.67 1001.67 1001.95 1002.03 1001.99 1001.47 1000.99 1000.87 1000.83 1000.67 1000.63 1000.55 1000.19 999.99 1000.07 1000.43 1000.51 1000.19 999.91 999.47 999.43 999.47 999.39 999.27 999.55 999.55 999.47 999.59 999.55 999.43 999.35 999.43 999.31 999.27 999.51 999.75 999.87 999.99 1000.19 1000.27 1000.47 1000.47 1000.55 1000.71 1000.75 1000.75 1000.75 1000.79 1000.75 1001.11 1001.31 1001.47 1001.83 1001.99 1002.27 1002.51 1002.63 1002.75
999.67 999.55 999.27 999.63 1000.15 1000.95 1001.23 1002.27 1002.55 1002.51 1002.47 1002.47 1002.67 1002.59 1002.27 1001.87 1001.55 1001.27 1001.19 1001.07 1000.75 1000.71 1000.91 1000.95 1000.75 1000.43 1000.15 999.95 999.91 1000.11 1000.23 1000.23 1000.27 1000.27 1000.11 999.99 999.95 999.91 999.87 1000.03 1000.31 1000.39 1000.35 1000.35 1000.39 1000.47 1000.63 1000.79 1000.91 1000.87 1000.87 1001.03 1000.99 1000.99 1001.23 1001.31 1001.39 1001.75 1002.03 1002.11 1002.23 1002.55 1002.87
Wind_Speed
17 20 19 19 15 14 14 16 20 17 13 18 16 14 18 14 14 17 10 9 12 11 11 13 13 13 13 12 12 12 11 11 12 13 15 17 17 18 19 20 19 20 20 20 19 19 18 19 18 18 18 18 19 17 16 17 17 16 17 17 16 15 15
18 16 18 20 20 14 10 18 17 15 16 15 15 16 10 12 17 13 13 14 12 14 13 12 19 20 19 17 16 15 12 11 14 14 15 16 18 18 19 19 19 21 22 23 21 20 21 20 20 20 20 19 18 18 18 18 17 18 17 17 17 16 16
16 16 17 19 21 21 18 13 14 17 13 16 15 13 18 18 19 13 14 17 15 15 13 9 9 12 15 15 14 11 9 12 15 15 16 16 17 16 17 19 18 18 19 19 20 21 22 21 20 20 19 19 17 17 18 18 19 19 19 16 15 14 15
17 17 16 17 18 20 23 14 13 17 14 15 15 15 12 13 16 15 17 19 15 13 14 13 13 11 9 6 7 6 8 11 13 12 13 15 16 16 17 17 18 18 20 22 22 22 22 21 20 19 20 18 20 19 18 18 18 17 17 17 15 15 15
15 16 15 19 18 18 19 17 14 14 14 10 13 16 18 16 16 16 13 15 13 12 11 16 16 13 11 12 13 12 11 12 12 12 12 13 15 16 16 17 18 20 21 21 21 21 20 20 19 19 19 20 20 18 19 20 19 19 19 18 17 15 14
15 15 17 21 22 19 17 16 18 16 14 16 19 19 17 18 17 13 15 17 10 8 10 11 13 15 15 14 14 14 15 16 13 11 12 12 13 16 17 17 18 18 18 19 19 18 18 19 19 20 19 19 20 20 19 19 19 19 19 18 16 15 14
12 16 16 20 23 23 20 18 19 19 17 14 16 16 15 17 20 20 20 16 15 10 7 11 14 15 18 16 16 16 14 15 11 8 10 12 14 16 17 17 17 16 16 16 17 19 20 20 19 20 19 18 19 20 19 18 19 19 19 19 17 15 14
12 14 16 16 19 22 23 21 19 19 21 20 18 15 13 17 17 16 19 20 14 9 8 8 9 9 11 13 15 14 13 14 10 8 9 11 12 13 14 14 14 14 14 15 15 17 17 17 17 18 18 17 17 18 19 18 19 20 19 18 17 16 15
10 12 13 15 14 16 16 17 19 21 21 25 22 18 14 18 22 21 18 22 13 11 8 6 7 12 16 16 15 15 16 15 12 7 8 9 10 11 13 14 13 13 14 16 16 16 16 16 16 16 16 17 17 17 17 18 18 19 18 16 17 16 16
15 15 16 16 16 17 14 17 22 24 25 25 20 20 17 18 17 24 22 18 12 13 11 15 14 12 11 10 10 11 11 12 10 3 5 7 8 10 11 12 13 15 14 14 14 16 15 16 16 15 15 16 16 16 17 17 17 16 17 16 17 16 16
15 13 11 10 12 12 17 19 23 24 24 25 24 16 18 21 12 16 14 16 16 18 17 14 15 16 17 15 15 16 15 13 8 6 6 6 8 9 11 12 11 11 13 16 17 16 16 16 16 15 16 16 16 15 16 16 15 15 14 15 15 16 16
17 16 15 14 16 17 18 21 22 23 23 23 27 23 22 16 14 18 11 15 22 19 18 15 16 15 15 15 13 12 13 11 11 10 8 8 8 9 10 13 14 16 15 15 16 17 16 16 16 15 15 15 15 15 15 15 15 14 12 13 14 14 14
20 21 21 19 18 17 17 18 20 21 23 24 24 24 25 22 19 19 12 15 19 19 23 22 18 13 16 14 14 16 18 20 10 8 9 10 11 11 13 14 15 14 15 16 16 16 16 16 17 16 15 15 14 13 13 13 14 14 12 12 13 14 13
20 22 24 23 24 20 21 22 21 22 24 25 26 25 25 27 23 21 17 17 20 20 21 23 25 18 17 15 14 15 17 18 13 10 10 12 12 13 14 15 16 16 16 15 15 16 16 17 17 16 15 14 15 15 14 14 13 13 12 12 13 13 13
18 21 23 24 25 24 24 24 24 24 24 25 26 24 24 25 26 27 24 24 20 15 17 20 22 21 19 17 18 19 17 18 16 12 12 11 12 13 13 14 14 14 14 15 15 16 17 17 17 16 14 14 14 15 14 14 13 13 13 12 13 13 12
12 16 20 22 23 25 26 24 25 25 24 24 23 22 20 21 21 22 25 23 19 15 15 16 18 19 20 19 17 16 15 16 14 13 12 12 12 12 13 14 14 14 15 16 18 19 18 18 17 15 15 15 15 15 14 14 13 13 13 13 12 12 12
11 12 15 19 21 21 22 23 22 22 23 21 20 21 23 23 22 20 20 20 15 15 16 18 18 21 21 19 18 18 17 12 12 12 13 13 13 13 13 14 15 15 17 18 19 18 16 16 16 16 15 14 13 13 13 12 11 12 13 13 12 11 11
8 11 14 12 14 19 17 12 19 22 23 23 25 22 23 23 21 17 17 16 16 18 20 22 21 24 23 20 16 13 9 8 8 11 11 10 9 9 11 12 13 13 12 12 13 15 15 16 16 15 14 12 11 11 11 11 11 11 12 12 11 11 11
8 8 9 10 16 15 11 13 15 19 22 22 23 23 23 22 22 21 20 17 16 15 16 17 18 18 17 16 13 9 8 7 7 8 9 8 8 8 9 11 13 13 13 12 11 13 14 14 14 13 13 12 11 11 11 11 11 10 11 11 11 11 11
7 8 9 13 13 9 10 8 10 7 11 17 21 23 23 23 23 20 21 19 16 16 16 16 13 12 6 3 3 4 5 7 8 10 10 10 10 10 7 7 9 11 13 13 12 12 11 11 12 12 12 12 12 12 12 12 11 11 11 11 11 10 11
7 8 10 12 8 11 11 10 8 9 11 14 16 16 17 21 17 19 17 17 18 17 15 9 6 4 4 6 7 8 8 8 8 10 9 9 10 11 10 10 10 10 10 11 12 13 12 12 12 12 12 13 12 12 12 11 11 11 11 11 10 10 10
8 11 7 10 12 13 11 5 7 7 7 8 9 8 15 14 17 18 17 16 17 17 11 8 7 7 6 10 10 10 9 8 9 9 8 7 7 9 10 9 11 13 14 15 15 14 15 13 13 11 12 12 12 11 11 11 11 10 10 10 9 9 10
6 8 10 8 11 5 8 8 8 8 7 6 5 6 15 9 12 13 16 18 18 18 14 10 10 8 11 12 11 8 7 7 7 8 9 9 8 9 10 11 11 13 13 14 17 16 15 14 12 12 13 13 12 10 10 10 10 9 9 8 9 9 10
7 8 9 9 9 4 4 11 9 9 7 5 4 12 14 11 15 14 14 16 15 13 11 11 12 11 13 14 6 8 7 6 5 6 7 8 8 9 10 11 12 12 13 13 14 16 15 13 12 12 12 11 11 9 9 8 9 8 8 7 8 8 8
12 10 7 8 10 4 7 12 10 8 4 6 10 13 3 5 3 7 10 13 11 9 11 11 11 10 2 4 7 7 9 9 8 7 7 9 9 11 12 14 15 14 13 13 14 15 14 13 12 11 11 11 10 9 9 8 8 8 8 7 7 8 8
16 13 10 8 8 4 7 8 8 4 4 8 10 3 4 4 3 4 7 9 10 10 11 11 8 6 6 7 8 10 10 11 11 11 12 13 13 12 13 13 13 13 13 14 16 16 14 14 13 12 12 12 11 11 9 9 9 8 8 7 7 7 7
12 10 12 7 8 5 8 9 6 4 10 3 3 3 4 3 2 2 2 4 7 10 10 10 12 11 10 10 11 12 13 14 15 15 15 16 16 16 16 14 13 13 14 14 15 16 14 14 12 11 13 13 11 10 10 9 8 8 7 7 7 6 7
13 13 13 8 1 4 6 5 3 2 6 4 3 3 2 4 5 5 6 5 7 10 13 14 15 15 15 14 14 14 15 15 15 16 16 17 18 18 18 17 16 15 15 14 14 14 12 12 11 11 12 12 11 10 11 10 10 10 9 8 8 8 8
9 8 5 5 6 6 5 3 1 2 1 1 1 3 6 7 9 9 10 10 10 13 16 17 17 16 16 15 14 14 15 15 15 16 16 16 17 17 16 16 15 16 15 16 14 13 11 11 9 8 9 13 12 10 6 7 9 10 10 10 9 9 9
6 8 6 6 8 8 5 2 2 3 2 5 5 6 7 8 8 8 10 10 11 11 12 15 15 16 16 17 16 15 14 14 14 14 15 15 16 16 15 14 15 16 16 16 15 14 11 11 10 8 7 9 13 12 11 9 8 8 10 10 9 9 9
7 3 4 7 11 9 6 5 5 6 8 7 7 7 7 9 10 12 13 11 11 11 11 14 15 17 16 16 14 12 11 12 13 13 13 12 12 12 13 11 12 13 14 12 13 14 12 9 9 9 8 7 8 9 10 10 10 10 10 10 10 10 10
8 7 9 8 10 10 6 5 4 7 9 9 9 8 8 9 12 12 12 11 10 9 10 11 13 15 15 15 12 12 11 11 11 12 12 11 11 11 10 10 10 11 12 13 12 11 9 7 6 7 6 7 7 7 8 9 9 10 11 11 11 10 11
9 12 9 8 9 9 7 8 9 9 8 8 9 9 11 13 14 15 14 14 12 11 12 11 13 14 14 13 13 13 11 11 10 10 10 10 10 10 10 10 10 10 10 10 10 10 9 7 7 6 7 8 8 8 8 8 9 9 10 11 10 12 11
10 8 8 12 12 5 3 8 9 10 10 8 11 12 13 13 13 13 15 14 14 14 14 14 14 14 13 13 12 14 12 11 11 10 9 9 10 9 8 7 9 9 9 9 9 8 7 6 6 6 7 6 7 8 8 8 8 9 9 9 10 10 9
5 3 10 2 9 13 8 6 6 8 10 10 12 13 13 13 14 13 14 13 13 14 14 13 14 14 13 13 12 13 12 11 10 10 10 9 8 8 6 7 7 8 7 7 7 8 6 5 5 5 5 6 6 7 7 8 8 9 9 8 8 8 8
7 6 4 2 2 8 9 5 7 9 9 11 13 13 13 12 12 12 14 14 13 12 12 13 13 12 13 12 13 13 13 12 11 10 9 9 8 7 6 6 5 6 5 5 4 4 4 3 4 3 4 6 5 7 7 8 9 9 8 7 7 7 7
2 6 8 7 11 13 13 10 7 8 9 9 8 9 11 12 12 12 11 11 11 11 11 12 12 12 11 12 11 11 11 11 10 9 9 8 8 7 7 7 7 6 6 5 4 3 3 3 3 3 4 6 5 6 8 8 8 8 7 6 7 8 7
Wind_Direction
198 198 197 210 201 209 189 208 217 221 219 230 232 242 243 245 231 236 212 210 228 246 253 241 248 252 251 248 245 235 231 211 202 203 202 201 199 197 196 195 192 188 185 188 190 190 191 193 194 195 192 191 194 194 196 198 199 199 198 199 201 201 202
200 198 197 209 210 225 194 212 214 219 230 240 233 233 200 224 233 231 223 219 227 224 240 228 235 242 244 243 248 243 229 207 204 205 202 200 201 199 197 197 194 189 188 189 189 190 190 191 192 193 192 192 192 194 195 195 196 198 200 199 199 199 201
190 199 200 208 219 213 228 220 195 217 187 216 227 235 228 220 225 241 230 235 235 229 232 215 205 221 222 229 235 244 225 209 212 210 204 203 202 199 197 198 196 196 194 191 190 191 191 191 190 191 192 191 192 194 196 197 197 198 199 200 200 201 201
188 200 199 209 201 205 226 235 222 213 229 223 215 217 239 243 240 230 237 234 234 219 238 223 214 209 220 224 261 274 263 235 216 212 203 198 197 199 198 197 197 197 198 196 193 191 191 190 189 190 192 194 196 194 195 199 199 197 197 198 197 200 200
188 204 196 210 204 194 204 212 221 211 219 221 230 229 223 231 239 244 247 236 229 219 225 231 228 227 227 248 255 255 259 265 245 213 204 199 197 195 197 197 198 199 200 200 197 193 191 189 188 192 193 196 199 196 196 197 197 198 198 198 198 198 198
207 212 200 215 213 208 205 203 213 219 204 208 219 227 220 225 235 230 239 246 246 206 205 217 223 238 238 239 253 260 263 258 250 225 207 199 195 196 196 198 200 202 201 200 197 192 191 190 190 194 196 196 199 200 199 198 199 200 201 199 199 197 197
216 218 212 205 222 222 217 206 214 213 223 219 226 227 222 222 231 239 240 250 241 235 206 187 218 230 236 237 241 249 257 265 261 228 210 197 197 195 199 200 201 200 198 197 193 190 191 192 191 193 195 198 198 200 202 200 201 202 203 200 196 195 194
224 213 224 220 210 223 226 222 217 209 219 216 226 228 224 241 227 228 237 239 237 217 223 201 206 215 243 236 244 259 261 267 266 227 208 197 196 202 204 207 204 198 192 189 188 189 191 192 191 192 194 197 199 200 201 202 203 203 203 202 196 191 192
230 230 218 220 202 217 227 225 218 218 221 220 226 233 226 235 236 228 232 238 223 213 225 195 236 239 233 227 231 246 257 265 264 223 201 197 195 196 203 205 199 191 186 183 186 185 186 189 192 192 193 195 198 200 201 203 204 203 203 201 198 193 194
209 207 208 203 197 207 218 228 228 221 221 221 215 224 220 234 226 234 238 238 232 235 198 212 217 226 236 222 238 253 250 253 265 226 184 183 190 198 200 200 192 188 183 179 180 182 185 187 190 191 192 194 197 199 202 204 204 202 201 200 200 196 195
222 221 222 213 218 201 218 217 224 226 220 224 228 230 230 232 219 232 239 246 242 227 213 209 213 210 223 241 238 235 239 239 239 223 211 199 195 194 193 194 190 180 180 183 181 180 184 186 187 188 191 194 196 197 201 204 203 200 198 199 198 199 198
246 239 226 224 219 229 215 220 220 225 227 222 228 225 228 234 234 235 229 226 240 234 237 217 211 216 224 235 243 239 242 251 242 225 190 189 193 192 186 186 188 188 185 181 181 183 185 188 189 190 192 194 195 196 198 199 200 198 195 197 194 200 202
234 239 244 233 229 227 236 224 223 219 221 227 227 232 234 232 235 241 226 220 229 227 234 241 234 225 238 234 232 241 252 261 253 195 192 198 197 186 190 195 193 189 185 186 185 184 187 188 190 192 193 195 195 195 197 197 199 198 191 192 195 197 201
237 234 234 236 238 232 226 233 227 226 224 224 226 232 234 234 240 243 242 236 227 231 229 232 242 240 241 246 248 253 252 255 255 228 203 208 200 193 193 197 196 193 190 184 184 183 187 191 191 192 193 192 192 192 193 193 197 196 191 191 195 198 199
242 238 235 235 235 235 234 228 232 233 229 229 227 229 231 234 239 240 237 242 242 230 231 233 240 239 242 246 244 249 250 249 247 234 224 214 207 200 195 195 199 191 186 184 181 184 189 191 191 191 189 188 190 194 193 192 190 193 190 189 193 197 195
241 230 234 234 238 240 236 231 227 229 232 230 227 228 225 229 230 232 238 239 235 227 225 232 234 233 236 242 242 241 242 243 241 232 227 218 209 202 197 196 192 186 186 185 185 187 188 187 187 188 187 187 189 193 189 191 187 188 192 189 190 192 201
249 242 232 232 233 240 241 233 228 228 230 238 239 235 228 227 230 230 228 236 235 233 229 228 224 231 232 235 241 244 245 245 243 234 230 221 209 202 195 188 190 191 190 189 188 186 183 185 187 189 186 186 188 188 186 186 185 182 185 190 190 193 195
254 255 251 248 241 231 230 224 226 227 232 227 233 235 230 227 225 235 235 235 230 225 227 227 226 228 234 231 230 234 238 235 232 243 247 247 235 213 199 196 199 198 191 186 186 186 184 184 184 184 186 185 181 181 179 174 180 183 184 190 190 190 190
241 240 243 233 237 238 235 228 223 226 230 234 239 240 239 235 227 231 238 236 237 227 224 226 227 233 230 218 216 198 213 229 242 246 246 239 236 230 214 202 195 188 187 180 175 180 187 185 179 179 178 179 170 170 175 178 182 186 186 189 189 188 191
249 241 236 238 235 243 260 273 254 228 238 239 239 240 240 241 239 231 232 233 232 230 228 228 224 226 205 174 194 211 213 216 228 237 238 232 225 218 215 209 191 174 176 171 169 171 174 175 173 174 171 174 178 182 182 178 181 182 183 185 186 187 185
244 249 232 251 281 264 233 226 215 203 232 228 228 239 234 231 232 239 236 230 228 233 233 201 173 188 208 229 226 209 214 210 225 234 236 231 222 217 205 187 174 164 163 167 163 156 158 166 164 172 175 181 180 173 173 171 175 179 180 182 185 183 186
230 239 241 240 233 239 231 54 53 22 4 350 345 271 248 222 218 220 224 225 228 231 213 194 162 152 208 231 226 198 198 194 207 218 227 230 223 203 191 180 171 166 163 157 152 161 158 172 177 181 172 168 166 164 164 164 171 175 177 178 182 181 185
256 248 244 247 255 238 45 26 5 3 354 332 328 242 242 188 195 202 216 221 222 222 213 184 169 177 217 228 227 165 176 189 195 196 198 205 203 186 179 179 169 166 167 169 161 166 167 172 165 165 161 156 152 153 158 162 163 167 172 170 175 176 176
226 261 247 235 244 272 33 6 345 344 342 20 204 233 239 192 188 194 203 216 216 212 211 186 190 199 220 227 190 141 159 150 151 160 160 158 146 144 147 153 149 146 148 154 158 154 151 141 143 146 143 139 133 137 146 153 154 158 163 159 163 165 160
209 228 253 264 253 107 20 355 336 327 287 220 219 224 251 36 213 184 202 208 208 203 199 194 206 208 258 47 104 136 130 131 126 137 148 148 148 138 136 129 131 132 138 143 145 135 122 129 135 134 129 125 126 130 137 144 144 145 141 141 147 146 147
217 215 235 238 262 69 350 353 327 286 231 208 230 33 323 282 310 248 219 211 201 194 196 199 210 131 125 123 119 121 127 126 128 131 131 126 121 118 119 131 139 136 131 125 122 118 121 124 125 125 123 120 124 127 132 133 136 130 132 137 138 139 142
212 216 227 219 235 91 6 353 290 173 247 9 340 304 16 37 41 90 167 186 173 172 150 129 117 122 118 121 118 113 116 120 120 120 119 117 117 118 121 120 117 118 116 114 111 115 121 119 117 122 122 122 127 136 131 125 119 119 123 126 128 130 132
212 207 213 221 343 35 20 16 299 354 335 352 343 343 100 80 98 92 84 99 125 132 127 125 115 110 108 105 109 109 107 107 105 103 104 108 112 114 112 110 106 99 95 95 96 95 97 107 117 120 124 126 132 131 135 139 135 129 130 131 129 130 132
235 233 199 88 92 61 32 3 100 189 22 55 300 83 87 103 93 100 94 92 101 110 116 115 116 111 107 105 102 101 100 99 96 94 93 96 98 100 101 103 102 100 100 100 99 97 99 102 101 111 125 123 119 122 138 139 138 138 138 138 137 137 137
81 49 36 102 92 75 58 84 1 47 43 37 42 71 83 65 72 71 83 89 101 108 110 111 107 102 102 98 93 90 86 84 81 83 88 90 93 95 96 101 104 107 108 109 109 110 111 112 115 124 131 136 140 144 147 146 146 139 133 132 135 139 137
165 147 156 126 109 100 47 42 68 50 42 44 43 48 53 59 65 69 62 62 63 72 75 86 94 95 92 88 81 75 72 70 71 71 70 70 75 82 83 89 104 105 107 107 109 111 112 119 126 131 135 128 123 134 142 147 144 140 136 137 136 138 137
211 131 134 96 85 78 50 13 47 46 36 41 49 58 63 67 64 61 63 68 67 63 71 72 82 88 91 91 88 79 68 65 64 64 67 70 70 67 72 75 87 99 105 109 110 108 108 109 107 107 107 112 121 131 138 140 134 135 140 144 143 141 138
112 109 106 108 94 63 30 29 30 27 29 42 48 60 76 80 78 76 70 61 58 51 56 60 66 65 62 71 83 82 70 62 60 62 65 65 64 64 64 61 68 77 84 89 97 103 103 104 100 100 106 116 126 129 138 135 138 142 137 137 136 139 139
168 157 147 153 137 150 90 45 16 15 12 37 51 47 47 50 63 69 71 63 55 53 49 52 54 55 53 54 61 69 65 58 52 53 63 71 73 67 63 64 66 67 65 72 80 89 97 102 105 109 108 120 136 146 139 138 143 135 137 139 143 142 144
130 28 175 95 82 84 59 40 31 29 26 41 46 44 42 43 48 53 62 63 51 49 49 51 62 60 55 53 58 65 61 56 50 48 47 50 57 65 71 79 70 69 69 66 73 79 87 95 105 110 123 136 145 137 135 141 145 142 146 146 145 139 142
297 293 140 19 127 128 126 84 47 30 24 38 44 39 40 41 41 46 56 56 54 49 44 42 45 60 66 57 56 57 54 52 51 51 49 51 50 57 64 68 66 69 74 70 70 82 89 100 111 140 139 144 149 139 142 153 150 147 144 143 143 143 144
8 63 73 81 101 103 103 89 62 48 34 39 46 34 27 33 32 32 43 47 45 48 46 39 32 30 48 61 60 59 58 51 40 34 42 47 47 44 47 51 54 60 63 65 76 96 118 137 142 156 138 136 155 142 147 149 144 138 140 146 145 141 139